Cordova, AK

7:35 AM AKDT on August 25, 2016 (GMT -0800)
Cordova-Smith

Weather History for PACV - October, 2012

Change the Weather History Date:

Wednesday, October 17, 2012

  Actual Average Record
Temperature  
Mean Temperature 32 °F -  
Max Temperature 34 °F 45 °F 55 °F (2014)
Min Temperature 28 °F 32 °F 15 °F (1992)
Degree Days  
Heating Degree Days 33    
Moisture  
Dew Point 30 °F    
Average Humidity 90    
Maximum Humidity 100    
Minimum Humidity 79    
Precipitation  
Precipitation 0.33 in - - ()
Snow  
Snow 0.00 in - - ()
Snow Depth 8.00 in    
Sea Level Pressure  
Sea Level Pressure 29.65 in    
Wind  
Wind Speed 8 mph (ENE)    
Max Wind Speed 14 mph    
Max Gust Speed 23 mph    
Visibility 4 miles    
Events Fog , Rain , Snow    
Averages and records for this station are not official NWS values.
T = Trace of Precipitation, MM = Missing Value Source: NWS Daily Summary

Daily Weather History Graph

Daily Weather History Graph

Search for Another Location

Airport or City:

Trip Planner

Search our weather history database for the weather conditions in past years. The results will help you decide how hot, cold, wet, or windy it might be!

Date:

Astronomy

Oct. 17, 2012 Rise Set
Actual Time 8:29 AM AKDT 6:23 PM AKDT
Civil Twilight 7:45 AM AKDT 7:06 PM AKDT
Nautical Twilight 6:56 AM AKDT 7:55 PM AKDT
Astronomical Twilight 6:07 AM AKDT 8:44 PM AKDT
Moon 12:10 PM AKDT (10/17) 7:09 PM AKDT (10/17)
Length of Visible Light 11h 20m
Length of Day
9h 54m
Waxing Crescent, 8% of the Moon is Illuminated
Oct 17
Waxing Crescent
Oct 21
First Quarter
Oct 29
Full
Nov 6
Last Quarter
Nov 13
New

Hourly Weather History & Observations

Time (AKDT) Temp. Windchill Dew Point Humidity Pressure Visibility Wind Dir Wind Speed Gust Speed Precip Events Conditions
12:04 AM 32.0 °F 22.1 °F 30.2 °F 93% 29.60 in 0.5 mi ESE 13.8 mph 18.4 mph 0.05 in Fog , Snow Snow
12:20 AM 32.0 °F 22.5 °F 30.2 °F 93% 29.62 in 1.0 mi ESE 12.7 mph 19.6 mph 0.07 in Snow Light Snow
12:27 AM 33.8 °F 26.4 °F 30.2 °F 87% 29.62 in 2.0 mi East 9.2 mph 19.6 mph 0.08 in Snow Light Snow
12:32 AM 33.8 °F 26.4 °F 30.2 °F 87% 29.63 in 8.0 mi East 9.2 mph 18.4 mph 0.08 in Rain Light Freezing Rain
12:39 AM 33.8 °F 26.4 °F 30.2 °F 87% 29.63 in 10.0 mi East 9.2 mph - 0.08 in   Overcast
12:48 AM 33.8 °F 26.4 °F 28.4 °F 81% 29.63 in 10.0 mi East 9.2 mph - 0.08 in   Mostly Cloudy
12:53 AM 33.1 °F 26.1 °F 28.9 °F 85% 29.63 in 10.0 mi ENE 8.1 mph - 0.08 in   Mostly Cloudy
1:53 AM 34.0 °F 26.6 °F 28.0 °F 79% 29.67 in 6.0 mi ENE 9.2 mph 18.4 mph 0.00 in Snow Light Snow
2:21 AM 33.8 °F 25.8 °F 28.4 °F 81% 29.69 in 2.0 mi ESE 10.4 mph - 0.01 in Snow Light Snow
2:28 AM 33.8 °F 25.8 °F 28.4 °F 81% 29.68 in 1.8 mi East 10.4 mph 18.4 mph 0.01 in Snow Light Snow
2:31 AM 33.8 °F 27.0 °F 28.4 °F 81% 29.69 in 3.0 mi East 8.1 mph 18.4 mph 0.01 in Snow Light Snow
2:42 AM 33.8 °F 26.4 °F 28.4 °F 81% 29.70 in 1.8 mi East 9.2 mph 18.4 mph 0.02 in Snow Light Snow
2:51 AM 32.0 °F 22.5 °F 28.4 °F 87% 29.70 in 0.8 mi East 12.7 mph 23.0 mph 0.02 in Snow Light Snow
2:53 AM 32.0 °F 23.0 °F 28.9 °F 88% 29.70 in 0.8 mi East 11.5 mph 23.0 mph 0.03 in Snow Light Snow
2:56 AM 32.0 °F 23.0 °F 30.2 °F 93% 29.70 in 0.5 mi East 11.5 mph 23.0 mph 0.00 in Fog , Snow Snow
3:04 AM 32.0 °F 24.2 °F 30.2 °F 93% 29.70 in 0.8 mi East 9.2 mph 17.3 mph 0.01 in Snow Light Snow
3:32 AM 32.0 °F 24.8 °F 30.2 °F 93% 29.70 in 1.0 mi ENE 8.1 mph - 0.03 in Snow Light Snow
3:53 AM 32.0 °F 23.6 °F 30.0 °F 92% 29.72 in 1.2 mi NE 10.4 mph - 0.04 in Snow Light Snow
4:11 AM 32.0 °F 24.2 °F 28.4 °F 87% 29.71 in 1.5 mi NE 9.2 mph - 0.01 in Snow Light Snow
4:23 AM 32.0 °F 26.4 °F 30.2 °F 93% 29.72 in 1.2 mi East 5.8 mph - 0.01 in Snow Light Snow
4:43 AM 32.0 °F 25.6 °F 30.2 °F 93% 29.71 in 0.8 mi NE 6.9 mph - 0.02 in Snow Light Snow
4:53 AM 32.0 °F 26.4 °F 30.0 °F 92% 29.71 in 1.2 mi NE 5.8 mph - 0.03 in Snow Light Snow
5:03 AM 32.0 °F 26.4 °F 30.2 °F 93% 29.71 in 2.0 mi NE 5.8 mph - 0.00 in Snow Light Snow
5:12 AM 32.0 °F 27.5 °F 30.2 °F 93% 29.71 in 4.0 mi NE 4.6 mph - 0.00 in Snow Light Snow
5:21 AM 32.0 °F 27.5 °F 30.2 °F 93% 29.71 in 2.0 mi ENE 4.6 mph - 0.00 in Snow Light Snow
5:28 AM 32.0 °F 25.6 °F 28.4 °F 87% 29.71 in 1.5 mi ENE 6.9 mph - 0.00 in Snow Light Snow
5:53 AM 32.0 °F 27.5 °F 30.0 °F 92% 29.71 in 1.8 mi East 4.6 mph - 0.01 in Snow Light Snow
6:09 AM 32.0 °F 27.5 °F 30.2 °F 93% 29.70 in 2.5 mi NE 4.6 mph - 0.00 in Snow Light Snow
6:17 AM 32.0 °F 24.8 °F 28.4 °F 87% 29.70 in 4.0 mi NE 8.1 mph - 0.00 in Snow Light Snow
6:53 AM 32.0 °F 26.4 °F 28.9 °F 88% 29.70 in 3.0 mi ENE 5.8 mph - 0.01 in Snow Light Snow
6:58 AM 32.0 °F 27.5 °F 28.4 °F 87% 29.70 in 1.8 mi ENE 4.6 mph - 0.00 in Snow Light Snow
7:23 AM 32.0 °F 26.4 °F 28.4 °F 87% 29.69 in 3.0 mi NNE 5.8 mph - 0.00 in Snow Light Snow
7:53 AM 32.0 °F - 30.0 °F 92% 29.68 in 9.0 mi Calm Calm - 0.00 in   Overcast
8:39 AM 32.0 °F 23.6 °F 28.4 °F 87% 29.68 in 2.5 mi ENE 10.4 mph 18.4 mph 0.00 in Snow Light Snow
8:46 AM 32.0 °F 23.0 °F 28.4 °F 87% 29.68 in 0.8 mi ENE 11.5 mph 17.3 mph 0.01 in Snow Light Snow
8:53 AM 32.0 °F 23.6 °F 28.9 °F 88% 29.68 in 0.8 mi NE 10.4 mph 19.6 mph 0.01 in Snow Light Snow
9:03 AM 32.0 °F 26.4 °F 28.4 °F 87% 29.68 in 1.5 mi NE 5.8 mph - 0.00 in Snow Light Snow
9:09 AM 32.0 °F 26.4 °F 28.4 °F 87% 29.67 in 3.0 mi NNE 5.8 mph - 0.00 in Snow Light Snow
9:17 AM 32.0 °F 26.4 °F 28.4 °F 87% 29.67 in 10.0 mi NNE 5.8 mph - 0.00 in   Overcast
9:53 AM 33.1 °F 24.4 °F 28.9 °F 85% 29.68 in 8.0 mi ENE 11.5 mph 21.9 mph 0.00 in Snow Light Snow
10:04 AM 33.8 °F 24.8 °F 28.4 °F 81% 29.68 in 1.8 mi ENE 12.7 mph 20.7 mph 0.00 in Snow Light Snow
10:33 AM 32.0 °F 24.8 °F 30.2 °F 93% 29.68 in 0.8 mi ENE 8.1 mph 18.4 mph 0.00 in Snow Light Snow
10:40 AM 32.0 °F 24.8 °F 30.2 °F 93% 29.68 in 0.5 mi NE 8.1 mph - 0.01 in Fog , Snow Snow
10:53 AM 32.0 °F 25.6 °F 30.0 °F 92% 29.67 in 0.5 mi NNE 6.9 mph - 0.01 in Fog , Snow Snow
11:00 AM 32.0 °F 25.6 °F 30.2 °F 93% 29.66 in 1.0 mi North 6.9 mph - 0.00 in Snow Light Snow
11:12 AM 33.8 °F 30.8 °F 30.2 °F 87% 29.66 in 2.0 mi NNE 3.5 mph - 0.00 in Snow Light Snow
11:19 AM 33.8 °F 29.6 °F 30.2 °F 87% 29.66 in 1.2 mi North 4.6 mph - 0.01 in Snow Light Snow
11:34 AM 33.8 °F 28.6 °F 30.2 °F 87% 29.65 in 3.0 mi NNE 5.8 mph - 0.01 in Snow Light Snow
11:46 AM 33.8 °F 27.0 °F 30.2 °F 87% 29.66 in 1.8 mi ENE 8.1 mph - 0.01 in Snow Light Snow
11:53 AM 33.1 °F 26.1 °F 30.0 °F 89% 29.66 in 0.5 mi NE 8.1 mph - 0.01 in Fog , Snow Snow
12:06 PM 33.8 °F 29.6 °F 30.2 °F 87% 29.65 in 0.5 mi ENE 4.6 mph - 0.01 in Fog , Snow Snow
12:12 PM 33.8 °F 29.6 °F 30.2 °F 87% 29.65 in 1.0 mi ENE 4.6 mph - 0.01 in Snow Light Snow
12:23 PM 33.8 °F 27.7 °F 30.2 °F 87% 29.65 in 0.5 mi NE 6.9 mph - 0.01 in Fog , Snow Snow
12:36 PM 33.8 °F 30.8 °F 30.2 °F 87% 29.64 in 0.2 mi NNE 3.5 mph - 0.05 in Fog , Snow Heavy Snow
12:51 PM 32.0 °F 28.7 °F 30.2 °F 93% 29.64 in 0.5 mi North 3.5 mph - 0.07 in Fog , Snow Snow
12:53 PM 32.0 °F 27.5 °F 30.9 °F 96% 29.64 in 0.5 mi North 4.6 mph - 0.07 in Fog , Snow Snow
1:17 PM 32.0 °F - 30.2 °F 93% 29.62 in 0.5 mi Calm Calm - 0.02 in Fog , Snow Snow
1:20 PM 32.0 °F - 30.2 °F 93% 29.62 in 0.8 mi Calm Calm - 0.02 in Snow Light Snow
1:38 PM 32.0 °F - 30.2 °F 93% 29.61 in 1.8 mi Calm Calm - 0.02 in Snow Light Snow
1:42 PM 32.0 °F 28.7 °F 30.2 °F 93% 29.61 in 2.0 mi SSW 3.5 mph - 0.03 in Snow Light Snow
1:48 PM 33.8 °F - 30.2 °F 87% 29.62 in 3.0 mi Calm Calm - 0.03 in Snow Light Snow
1:53 PM 33.1 °F - 30.9 °F 92% 29.62 in 8.0 mi Calm Calm - 0.03 in Snow Light Snow
2:49 PM 32.0 °F - 30.2 °F 93% 29.59 in 9.0 mi Calm Calm - 0.00 in Snow Light Snow
2:53 PM 32.0 °F - 30.9 °F 96% 29.60 in 9.0 mi Calm Calm - 0.00 in Snow Light Snow
3:33 PM 32.0 °F - 30.2 °F 93% 29.59 in 10.0 mi Calm Calm - 0.00 in   Overcast
3:53 PM 32.0 °F - 30.0 °F 92% 29.58 in 8.0 mi Calm Calm - 0.00 in Snow Light Snow
4:53 PM 32.0 °F - 30.0 °F 92% 29.56 in 10.0 mi Calm Calm - 0.00 in   Overcast
5:00 PM 32.0 °F 28.7 °F 30.2 °F 93% 29.56 in 10.0 mi WNW 3.5 mph - N/A   Overcast
5:53 PM 32.0 °F 26.4 °F 30.0 °F 92% 29.53 in 10.0 mi West 5.8 mph - N/A   Overcast
6:53 PM 32.0 °F - 30.9 °F 96% 29.52 in 10.0 mi Calm Calm - N/A   Overcast
7:53 PM 32.0 °F - 30.9 °F 96% 29.51 in 10.0 mi Calm Calm - N/A   Overcast
8:53 PM 32.0 °F - 30.0 °F 92% 29.52 in 10.0 mi Calm Calm - N/A   Overcast
9:53 PM 30.9 °F - 30.0 °F 96% 29.53 in 10.0 mi Calm Calm - N/A   Overcast
10:53 PM 30.0 °F - 28.0 °F 92% 29.54 in 10.0 mi Calm Calm - N/A   Overcast
11:53 PM 28.0 °F - 28.0 °F 100% 29.55 in 10.0 mi Calm Calm - N/A   Overcast